Tracking 26442 objects as of 6-Dec-2022
HD Live streaming from Space Station
objects crossing your sky now

PROBA 1

Track PROBA 1 now!
10-day predictions
PROBA 1 is classified as:


NORAD ID: 26958
Int'l Code: 2001-049B
Perigee: 533.5 km
Apogee: 633.6 km
Inclination: 97.8 °
Period: 96.2 minutes
Semi major axis: 6954 km
RCS: Unknown
Launch date: October 22, 2001
Source: European Space Agency (ESA)
Launch site: SRIHARIKOTA (SRI)

First a technology demonstration, then extended for one year for remote sensing; looks like a washing machine.
aabbcc
Your satellite tracking list
Your tracking list is empty




NASA's NSSDC Master Catalog

Two Line Element Set (TLE):
1 26958U 01049B   22340.39321349  .00001449  00000-0  12501-3 0  9999
2 26958  97.8477 300.4948 0071987 129.4227 231.3397 14.96931166150191
Source of the keplerian elements: AFSPC